Time,TemperatureF,DewpointF,PressureIn,WindDirection,WindDirectionDegrees,WindSpeedMPH,WindSpeedGustMPH,Humidity,HourlyPrecipIn,Conditions,Clouds,dailyrainin,SoftwareType,DateUTC
2013-04-03 00:02:00,35.8,12.0,30.10,NNW,345,4.0,7.0,37,0.00,,,0.00,weatherlink.com 1.10,2013-04-03 04:02:00,
2013-04-03 00:17:00,35.5,11.0,30.10,NNW,345,1.0,7.0,37,0.00,,,0.00,weatherlink.com 1.10,2013-04-03 04:17:00,
2013-04-03 00:32:00,35.3,11.0,30.11,WNW,303,0.0,8.0,37,0.00,,,0.00,weatherlink.com 1.10,2013-04-03 04:32:00,
2013-04-03 00:47:00,34.9,11.0,30.11,SW,225,1.0,4.0,37,0.00,,,0.00,weatherlink.com 1.10,2013-04-03 04:47:00,
2013-04-03 01:02:00,34.5,11.0,30.11,NW,305,0.0,4.0,38,0.00,,,0.00,weatherlink.com 1.10,2013-04-03 05:02:00,
2013-04-03 01:17:00,34.0,12.0,30.11,NW,305,0.0,2.0,40,0.00,,,0.00,weatherlink.com 1.10,2013-04-03 05:17:00,
2013-04-03 01:32:00,33.5,11.0,30.11,West,259,1.0,2.0,40,0.00,,,0.00,weatherlink.com 1.10,2013-04-03 05:32:00,
2013-04-03 01:47:00,33.1,12.0,30.11,SW,217,0.0,1.0,41,0.00,,,0.00,weatherlink.com 1.10,2013-04-03 05:47:00,
2013-04-03 02:02:00,33.0,12.0,30.11,NW,323,0.0,3.0,41,0.00,,,0.00,weatherlink.com 1.10,2013-04-03 06:02:00,
2013-04-03 02:17:00,33.1,11.0,30.11,NW,319,1.0,15.0,40,0.00,,,0.00,weatherlink.com 1.10,2013-04-03 06:17:00,
2013-04-03 02:32:00,33.0,12.0,30.11,WNW,284,2.0,2.0,41,0.00,,,0.00,weatherlink.com 1.10,2013-04-03 06:32:00,
2013-04-03 02:47:00,32.7,12.0,30.11,West,269,0.0,4.0,42,0.00,,,0.00,weatherlink.com 1.10,2013-04-03 06:47:00,
2013-04-03 03:02:00,32.2,11.0,30.10,SW,225,0.0,3.0,42,0.00,,,0.00,weatherlink.com 1.10,2013-04-03 07:02:00,
2013-04-03 03:17:00,32.0,12.0,30.10,West,259,0.0,0.0,44,0.00,,,0.00,weatherlink.com 1.10,2013-04-03 07:17:00,
2013-04-03 03:32:00,32.5,12.0,30.10,NW,304,0.0,5.0,43,0.00,,,0.00,weatherlink.com 1.10,2013-04-03 07:32:00,
2013-04-03 03:47:00,32.3,12.0,30.10,NNW,330,0.0,3.0,44,0.00,,,0.00,weatherlink.com 1.10,2013-04-03 07:47:00,
2013-04-03 04:02:00,31.9,12.0,30.11,West,278,0.0,2.0,44,0.00,,,0.00,weatherlink.com 1.10,2013-04-03 08:02:00,
2013-04-03 04:17:00,31.7,12.0,30.11,NNW,345,0.0,3.0,45,0.00,,,0.00,weatherlink.com 1.10,2013-04-03 08:17:00,
2013-04-03 04:32:00,31.3,13.0,30.11,NW,312,0.0,2.0,46,0.00,,,0.00,weatherlink.com 1.10,2013-04-03 08:32:00,
2013-04-03 04:47:00,31.3,12.0,30.12,NW,319,1.0,2.0,45,0.00,,,0.00,weatherlink.com 1.10,2013-04-03 08:47:00,
2013-04-03 05:03:00,31.2,12.0,30.12,West,259,0.0,3.0,45,0.00,,,0.00,weatherlink.com 1.10,2013-04-03 09:03:00,
2013-04-03 05:18:00,31.0,13.0,30.12,West,263,2.0,3.0,47,0.00,,,0.00,weatherlink.com 1.10,2013-04-03 09:18:00,
2013-04-03 05:33:00,31.2,12.0,30.13,West,264,1.0,3.0,46,0.00,,,0.00,weatherlink.com 1.10,2013-04-03 09:33:00,
2013-04-03 05:48:00,30.9,13.0,30.13,WSW,250,0.0,3.0,47,0.00,,,0.00,weatherlink.com 1.10,2013-04-03 09:48:00,
2013-04-03 06:03:00,30.6,13.0,30.14,WSW,257,1.0,1.0,48,0.00,,,0.00,weatherlink.com 1.10,2013-04-03 10:03:00,
2013-04-03 06:18:00,30.5,14.0,30.15,WSW,252,1.0,3.0,50,0.00,,,0.00,weatherlink.com 1.10,2013-04-03 10:18:00,
2013-04-03 06:33:00,30.4,14.0,30.15,West,260,0.0,1.0,50,0.00,,,0.00,weatherlink.com 1.10,2013-04-03 10:33:00,
2013-04-03 06:48:00,30.0,14.0,30.15,West,261,0.0,1.0,51,0.00,,,0.00,weatherlink.com 1.10,2013-04-03 10:48:00,
2013-04-03 07:03:00,29.6,14.0,30.16,SW,218,0.0,1.0,52,0.00,,,0.00,weatherlink.com 1.10,2013-04-03 11:03:00,
2013-04-03 07:18:00,29.8,14.0,30.17,West,276,0.0,1.0,52,0.00,,,0.00,weatherlink.com 1.10,2013-04-03 11:18:00,
2013-04-03 07:33:00,30.2,14.0,30.18,WSW,240,0.0,2.0,51,0.00,,,0.00,weatherlink.com 1.10,2013-04-03 11:33:00,
2013-04-03 07:48:00,30.9,15.0,30.18,WNW,303,0.0,3.0,51,0.00,,,0.00,weatherlink.com 1.10,2013-04-03 11:48:00,
2013-04-03 08:03:00,31.7,15.0,30.18,SW,231,1.0,3.0,50,0.00,,,0.00,weatherlink.com 1.10,2013-04-03 12:03:00,
2013-04-03 08:18:00,33.0,16.0,30.18,NW,324,1.0,6.0,49,0.00,,,0.00,weatherlink.com 1.10,2013-04-03 12:18:00,
2013-04-03 08:33:00,34.3,15.0,30.18,WNW,300,0.0,4.0,46,0.00,,,0.00,weatherlink.com 1.10,2013-04-03 12:33:00,
2013-04-03 08:48:00,34.5,15.0,30.18,SW,234,2.0,7.0,45,0.00,,,0.00,weatherlink.com 1.10,2013-04-03 12:48:00,
2013-04-03 09:03:00,34.6,15.0,30.17,WNW,285,2.0,6.0,45,0.00,,,0.00,weatherlink.com 1.10,2013-04-03 13:03:00,
2013-04-03 09:18:00,35.4,15.0,30.17,WNW,283,1.0,8.0,44,0.00,,,0.00,weatherlink.com 1.10,2013-04-03 13:18:00,
2013-04-03 09:33:00,35.7,14.0,30.17,West,281,6.0,14.0,41,0.00,,,0.00,weatherlink.com 1.10,2013-04-03 13:33:00,
2013-04-03 09:48:00,36.0,13.0,30.16,NNE,32,4.0,13.0,39,0.00,,,0.00,weatherlink.com 1.10,2013-04-03 13:48:00,
2013-04-03 10:03:00,36.6,15.0,30.16,NNE,22,6.0,8.0,42,0.00,,,0.00,weatherlink.com 1.10,2013-04-03 14:03:00,
2013-04-03 10:18:00,37.0,15.0,30.16,West,280,5.0,8.0,41,0.00,,,0.00,weatherlink.com 1.10,2013-04-03 14:18:00,
2013-04-03 10:33:00,37.5,15.0,30.16,SW,235,5.0,12.0,40,0.00,,,0.00,weatherlink.com 1.10,2013-04-03 14:33:00,
2013-04-03 10:48:00,37.9,12.0,30.16,NNE,30,1.0,9.0,35,0.00,,,0.00,weatherlink.com 1.10,2013-04-03 14:48:00,
2013-04-03 11:03:00,38.5,15.0,30.16,NW,323,3.0,12.0,38,0.00,,,0.00,weatherlink.com 1.10,2013-04-03 15:03:00,
2013-04-03 11:18:00,38.9,13.0,30.17,NNE,26,4.0,14.0,34,0.00,,,0.00,weatherlink.com 1.10,2013-04-03 15:18:00,
2013-04-03 11:33:00,39.4,14.0,30.17,SW,232,3.0,11.0,35,0.00,,,0.00,weatherlink.com 1.10,2013-04-03 15:33:00,
2013-04-03 11:48:00,40.1,14.0,30.17,NNE,15,0.0,11.0,35,0.00,,,0.00,weatherlink.com 1.10,2013-04-03 15:48:00,
2013-04-03 12:34:00,41.8,14.0,30.16,NW,314,2.0,9.0,32,0.00,,,0.00,weatherlink.com 1.10,2013-04-03 16:34:00,
2013-04-03 12:49:00,42.3,13.0,30.15,West,269,2.0,7.0,30,0.00,,,0.00,weatherlink.com 1.10,2013-04-03 16:49:00,
2013-04-03 13:04:00,42.4,13.0,30.16,North,358,3.0,12.0,30,0.00,,,0.00,weatherlink.com 1.10,2013-04-03 17:04:00,
2013-04-03 13:19:00,43.1,13.0,30.14,North,356,1.0,7.0,29,0.00,,,0.00,weatherlink.com 1.10,2013-04-03 17:19:00,
2013-04-03 13:34:00,44.2,14.0,30.14,WNW,302,3.0,9.0,29,0.00,,,0.00,weatherlink.com 1.10,2013-04-03 17:34:00,
2013-04-03 14:04:00,44.2,14.0,30.13,NNW,333,2.0,8.0,29,0.00,,,0.00,weatherlink.com 1.10,2013-04-03 18:04:00,
2013-04-03 14:19:00,44.1,14.0,30.13,SW,228,3.0,13.0,29,0.00,,,0.00,weatherlink.com 1.10,2013-04-03 18:19:00,
2013-04-03 14:49:00,45.0,12.0,30.12,WNW,288,5.0,9.0,26,0.00,,,0.00,weatherlink.com 1.10,2013-04-03 18:49:00,
2013-04-03 15:04:00,44.9,13.0,30.12,NNE,20,6.0,12.0,27,0.00,,,0.00,weatherlink.com 1.10,2013-04-03 19:04:00,
2013-04-03 15:19:00,44.5,12.0,30.12,WSW,257,1.0,13.0,27,0.00,,,0.00,weatherlink.com 1.10,2013-04-03 19:19:00,
2013-04-03 15:49:00,45.6,13.0,30.12,WNW,293,3.0,8.0,27,0.00,,,0.00,weatherlink.com 1.10,2013-04-03 19:49:00,
2013-04-03 16:04:00,46.6,12.0,30.12,North,5,6.0,8.0,25,0.00,,,0.00,weatherlink.com 1.10,2013-04-03 20:04:00,
2013-04-03 16:20:00,46.9,13.0,30.12,NNW,340,2.0,8.0,26,0.00,,,0.00,weatherlink.com 1.10,2013-04-03 20:20:00,
2013-04-03 16:34:00,45.2,13.0,30.12,NNW,342,4.0,13.0,27,0.00,,,0.00,weatherlink.com 1.10,2013-04-03 20:34:00,
2013-04-03 16:49:00,45.3,12.0,30.13,NW,323,3.0,14.0,26,0.00,,,0.00,weatherlink.com 1.10,2013-04-03 20:49:00,
2013-04-03 17:04:00,45.5,12.0,30.13,West,278,2.0,11.0,26,0.00,,,0.00,weatherlink.com 1.10,2013-04-03 21:04:00,
2013-04-03 17:19:00,45.9,12.0,30.13,NNW,347,2.0,8.0,25,0.00,,,0.00,weatherlink.com 1.10,2013-04-03 21:19:00,
2013-04-03 17:34:00,44.9,11.0,30.15,North,6,5.0,9.0,25,0.00,,,0.00,weatherlink.com 1.10,2013-04-03 21:34:00,
2013-04-03 17:49:00,43.7,11.0,30.16,North,1,3.0,12.0,26,0.00,,,0.00,weatherlink.com 1.10,2013-04-03 21:49:00,
2013-04-03 18:04:00,44.1,10.0,30.17,North,358,1.0,12.0,25,0.00,,,0.00,weatherlink.com 1.10,2013-04-03 22:04:00,
2013-04-03 18:19:00,43.6,10.0,30.18,WNW,290,2.0,13.0,25,0.00,,,0.00,weatherlink.com 1.10,2013-04-03 22:19:00,
2013-04-03 18:34:00,43.1,9.0,30.19,NW,323,5.0,16.0,25,0.00,,,0.00,weatherlink.com 1.10,2013-04-03 22:34:00,
2013-04-03 18:49:00,42.6,11.0,30.20,North,360,2.0,10.0,27,0.00,,,0.00,weatherlink.com 1.10,2013-04-03 22:49:00,
2013-04-03 19:04:00,41.9,10.0,30.21,NNW,342,2.0,10.0,27,0.00,,,0.00,weatherlink.com 1.10,2013-04-03 23:04:00,
2013-04-03 19:19:00,41.1,10.0,30.22,NE,51,5.0,13.0,28,0.00,,,0.00,weatherlink.com 1.10,2013-04-03 23:19:00,
2013-04-03 19:34:00,40.7,10.0,30.23,NNW,341,1.0,8.0,28,0.00,,,0.00,weatherlink.com 1.10,2013-04-03 23:34:00,
2013-04-03 19:49:00,40.2,10.0,30.24,ESE,103,0.0,9.0,29,0.00,,,0.00,weatherlink.com 1.10,2013-04-03 23:49:00,
2013-04-03 20:04:00,39.7,10.0,30.24,SW,224,0.0,6.0,30,0.00,,,0.00,weatherlink.com 1.10,2013-04-04 00:04:00,
2013-04-03 20:19:00,39.2,11.0,30.25,NNW,333,2.0,4.0,31,0.00,,,0.00,weatherlink.com 1.10,2013-04-04 00:19:00,
2013-04-03 20:34:00,38.9,10.0,30.25,NE,44,3.0,12.0,31,0.00,,,0.00,weatherlink.com 1.10,2013-04-04 00:34:00,
2013-04-03 20:49:00,38.6,11.0,30.26,WNW,284,5.0,8.0,32,0.00,,,0.00,weatherlink.com 1.10,2013-04-04 00:49:00,
2013-04-03 21:04:00,38.3,11.0,30.28,North,359,1.0,7.0,33,0.00,,,0.00,weatherlink.com 1.10,2013-04-04 01:04:00,
2013-04-03 21:19:00,37.9,11.0,30.28,WSW,255,0.0,5.0,33,0.00,,,0.00,weatherlink.com 1.10,2013-04-04 01:19:00,
2013-04-03 21:34:00,37.5,11.0,30.28,WNW,298,1.0,5.0,34,0.00,,,0.00,weatherlink.com 1.10,2013-04-04 01:34:00,
2013-04-03 21:49:00,37.3,11.0,30.29,West,260,3.0,12.0,34,0.00,,,0.00,weatherlink.com 1.10,2013-04-04 01:49:00,
2013-04-03 22:04:00,37.1,12.0,30.29,SW,228,2.0,10.0,35,0.00,,,0.00,weatherlink.com 1.10,2013-04-04 02:04:00,
2013-04-03 22:19:00,36.8,11.0,30.29,NNE,16,4.0,9.0,35,0.00,,,0.00,weatherlink.com 1.10,2013-04-04 02:19:00,
2013-04-03 22:34:00,36.5,12.0,30.29,North,6,4.0,8.0,36,0.00,,,0.00,weatherlink.com 1.10,2013-04-04 02:34:00,
2013-04-03 22:49:00,36.3,12.0,30.29,NE,43,8.0,10.0,37,0.00,,,0.00,weatherlink.com 1.10,2013-04-04 02:49:00,
2013-04-03 23:05:00,35.9,12.0,30.30,North,11,4.0,7.0,38,0.00,,,0.00,weatherlink.com 1.10,2013-04-04 03:05:00,
2013-04-03 23:20:00,35.6,13.0,30.31,West,259,5.0,9.0,39,0.00,,,0.00,weatherlink.com 1.10,2013-04-04 03:20:00,
2013-04-03 23:35:00,35.4,14.0,30.30,NNW,329,3.0,8.0,41,0.00,,,0.00,weatherlink.com 1.10,2013-04-04 03:35:00,
2013-04-03 23:50:00,35.1,14.0,30.30,NNW,340,3.0,11.0,42,0.00,,,0.00,weatherlink.com 1.10,2013-04-04 03:50:00,